Presure
206 205 206 208 185 205 203 208 211 200 213 204 209 214 219 211 206 231 200 221 225 225 227 227 232 240 241
200 203 202 202 196 194 199 211 214 213 208 199 219 214 216 179 203 198 229 219 207 203 214 218 214 212 217
204 205 206 207 207 209 206 213 193 207 212 209 199 191 221 205 217 211 194 218 207 233 218 202 195 206 208
199 206 189 191 206 203 181 211 198 206 211 207 201 215 216 217 208 219 206 217 218 199 201 199 224 230 214
191 205 183 206 206 195 198 202 203 203 205 204 205 202 202 211 205 208 217 224 203 187 227 224 206 220 213
211 211 209 203 188 183 210 217 202 213 189 201 191 213 220 207 214 211 215 169 185 211 213 223 216 190 228
170 169 196 188 190 202 193 191 184 208 202 207 174 200 211 162 216 194 199 214 220 194 183 185 219 221 219
178 190 202 194 195 184 184 206 208 215 190 204 204 213 197 213 202 222 225 200 188 198 204 205 205 207 216
169 211 209 204 214 152 199 166 206 182 202 226 173 215 182 190 213 193 190 217 192 222 209 207 215 207 219
203 185 197 149 173 194 161 160 210 160 189 218 173 214 210 205 184 182 193 224 183 201 216 223 232 211 231
213 204 210 215 207 201 217 208 159 218 199 195 197 220 226 182 233 228 204 221 210 208 240 233 224 229 233
223 234 167 219 198 220 192 228 255 246 212 254 264 268 274 201 275 254 257 266 248 241 237 255 250 228 231
223 228 241 246 249 266 282 286 293 236 276 285 317 300 264 298 282 286 278 265 272 275 273 266 234 234 235
297 298 262 266 284 266 291 297 301 287 310 290 265 327 324 291 293 368 280 272 273 277 253 265 262 232 236
343 303 288 288 290 306 265 323 327 327 342 348 326 301 301 295 338 326 320 303 262 233 354 344 267 321 302
300 298 266 321 314 296 317 301 315 316 322 320 121 285 324 327 335 317 299 297 291 292 324 336 309 303 295
275 305 293 303 312 286 345 330 289 273 314 334 334 342 358 339 335 303 375 340 316 334 329 279 308 318 302
Wind_Speed
28 29 29 29 34 30 32 32 30 31 29 28 29 28 27 25 26 23 23 18 14 15 16 18 16 20 24
33 34 34 35 36 37 38 35 35 34 33 33 35 32 31 35 31 33 26 23 29 29 26 26 30 31 31
35 37 38 38 39 39 39 39 39 39 39 36 40 41 44 37 38 36 39 31 34 33 31 36 39 38 40
41 43 37 39 44 42 37 47 43 51 47 43 42 43 45 45 44 42 39 39 38 44 41 43 36 35 44
49 51 44 50 52 48 46 50 49 48 54 52 51 47 47 50 44 45 47 49 45 43 45 45 50 45 46
55 55 55 53 50 47 61 66 56 63 44 54 50 63 65 54 57 51 53 51 50 46 47 51 50 53 53
55 57 58 57 53 62 59 38 41 66 56 58 53 50 61 52 63 54 56 58 58 54 52 52 57 58 57
63 59 71 64 64 59 47 69 73 79 62 62 57 67 53 63 64 69 70 59 57 56 57 56 59 59 64
62 82 81 78 82 54 69 64 78 72 67 86 64 71 64 66 67 60 63 67 63 65 63 63 65 63 66
81 73 78 54 73 68 66 66 86 60 75 84 68 79 69 65 69 67 73 76 65 67 67 71 75 68 75
92 90 94 96 91 89 98 88 62 94 87 75 77 90 94 75 93 86 77 75 74 76 87 79 70 72 74
101 105 67 96 83 95 80 93 104 104 80 102 104 103 101 77 98 96 95 94 93 88 82 81 78 71 75
97 99 103 105 104 104 99 99 95 84 100 97 94 93 89 93 91 89 87 83 84 81 81 75 72 73 73
104 102 101 100 96 94 91 88 87 88 87 87 84 80 78 81 77 66 78 74 72 75 71 73 72 71 74
83 87 87 85 84 78 83 74 74 74 70 67 71 74 74 72 63 64 64 66 67 72 53 56 64 57 63
79 78 79 74 73 71 69 69 67 66 64 64 44 67 61 59 56 59 61 62 63 60 53 47 53 53 57
75 72 73 70 67 67 62 63 64 64 57 55 54 51 48 48 49 55 45 50 52 47 47 57 52 47 49
Wind_Direction
284 289 293 296 290 298 299 304 306 300 307 295 308 313 313 307 303 334 284 307 293 279 289 278 276 268 261
292 291 293 294 297 298 299 298 302 302 298 295 312 305 305 287 291 291 314 281 280 277 274 272 264 260 263
289 287 288 290 291 293 295 292 299 297 296 296 291 292 307 289 299 288 286 290 278 305 268 276 275 270 267
295 293 289 296 297 289 287 297 296 304 298 295 299 295 293 291 290 292 285 291 292 281 278 280 286 285 265
292 292 281 292 290 286 294 300 298 292 298 295 295 293 296 297 293 293 290 289 282 280 288 284 276 280 273
285 287 292 292 291 282 291 289 296 292 282 290 283 291 291 293 292 288 291 278 276 285 288 296 287 283 289
286 278 290 282 284 291 287 288 282 292 293 289 279 288 291 287 289 280 285 290 290 280 277 281 293 290 283
285 289 289 291 281 283 284 288 290 287 280 290 290 284 283 290 286 290 287 280 275 276 280 285 280 281 284
273 285 286 282 285 281 292 280 292 274 291 284 277 289 268 273 288 284 271 287 273 284 277 278 283 278 284
287 279 288 282 282 283 282 284 290 287 278 292 282 289 282 277 272 277 276 281 281 272 277 281 283 277 282
283 281 283 285 284 285 285 286 288 286 285 286 284 284 284 276 282 281 272 276 269 274 282 279 275 277 278
279 278 284 282 283 282 283 277 279 279 282 279 279 279 278 284 276 276 276 274 275 276 277 275 274 272 272
280 281 282 282 282 282 282 281 279 281 278 279 277 276 278 276 274 273 274 274 273 272 272 271 267 268 269
280 281 281 281 283 282 283 282 279 279 276 277 277 276 275 275 273 270 271 271 272 270 268 269 266 268 268
282 282 283 284 283 282 282 280 278 277 278 276 274 275 275 275 269 268 268 269 268 268 264 267 267 265 264
284 284 283 283 282 281 281 280 278 277 277 276 283 273 271 271 268 267 267 266 266 266 264 258 263 261 260
286 285 285 284 283 280 281 279 277 277 277 275 273 272 271 269 267 264 257 263 264 259 257 264 261 264 257